User: anonymous   Login
Location: Unspecified
(38.9917°N, 0.0000°E)
Time: 19:33:28
(UTC+00:00)
Language:

LO-87 - Orbit

View from above orbital plane
View from above orbital plane
View from above satellite
View from above satellite

Ground track
Ground track

The orbit data is extracted from the following two-line orbital elements,

1 41557U 16033B   19266.55165394  .00000931  00000-0  37453-4 0  9996
2 41557  97.4157 353.4869 0012597 321.0316  39.0014 15.27381949184879
Epoch (UTC): 23 September 2019 13:14:22
Eccentricity: 0.0012597
inclination: 97.4157°
perigee height: 475 km
apogee height: 492 km
right ascension of ascending node: 353.4869°
argument of perigee: 321.0316°
revolutions per day: 15.27381949
mean anomaly at epoch: 39.0014°
orbit number at epoch: 18487

The dashed part of the orbit path shows where the satellite is in the earth's shadow,  

DLR